User: anonymous   Login
Location: Unspecified
(0.0000°N, 0.0000°E)
Time: 07:10:06
(UTC+00:00)
Language:

BRITE-PL 2 - Orbit

View from above orbital plane
View from above orbital plane
View from above satellite
View from above satellite

Ground track
Ground track

The orbit data is extracted from the following two-line orbital elements,

1 40119U 14049B   18015.71659567 +.00000109 +00000-0 +19473-4 0  9992
2 40119 097.9262 105.3991 0018840 114.3359 245.9825 14.84241110184595
Epoch (UTC): 15 January 2018 17:11:53
Eccentricity: 0.0018840
inclination: 97.9262°
perigee height: 603 km
apogee height: 629 km
right ascension of ascending node: 105.3991°
argument of perigee: 114.3359°
revolutions per day: 14.84241110
mean anomaly at epoch: 245.9825°
orbit number at epoch: 18459

The dashed part of the orbit path shows where the satellite is in the earth's shadow,  

DLR